Regional Weather Roundup
Issued by NWS Green Bay, WI

Home | Current Version | Previous Version | Graphics & Text | Print | Product List | Glossary Off
Versions: 1 2 3 4 5 6 7 8 9 10 11 12 13 14 15 16 17 18 19 20 21 22 23 24 25 26 27 28 29 30 31 32 33 34 35 36 37 38 39 40 41 42 43 44 45 46 47 48 49 50

000
ASUS43 KGRB 180810
RWRGRB

NORTH-CENTRAL AND NORTHEAST WISCONSIN REGIONAL WEATHER ROUNDUP
NATIONAL WEATHER SERVICE GREEN BAY WI
200 AM CST THU DEC 18 2014

WIZ005-009-010>012-018-019-180900-
NORTH CENTRAL WISCONSIN

CITY           SKY/WX    TMP DP  RH WIND       PRES   REMARKS
IRONWOOD       CLOUDY    23  21  93 CALM      30.25S
MANITOWISH WTR CLOUDY    21  19  92 NE6       30.25R
ARBOR VITAE    CLOUDY    23  20  89 CALM      30.24R
EAGLE RIVER    CLOUDY    21  19  93 NE5       30.24R
LAND O LAKES   CLOUDY    21  19  93 N7        30.24R
RHINELANDER    CLOUDY    21  18  88 CALM      30.24R
PHILLIPS       CLOUDY    20  18  89 NE3       30.26R
ANTIGO         CLOUDY    22  20  91 N3        30.24R
TOMAHAWK       CLOUDY    22  19  88 CALM      30.26R
MERRILL        CLOUDY    23  20  89 CALM      30.26R
$$

WIZ013-073-180900-
NORTHEAST WISCONSIN

CITY           SKY/WX    TMP DP  RH WIND       PRES   REMARKS
IRON MOUNTAIN  CLOUDY    24  18  77 N13       30.24R
MARINETTE      CLOUDY    27  21  80 N7        30.25R
OCONTO         CLOUDY    27  24  86 NW3       30.27R
$$

WIZ017-030-035>037-045-180900-
CENTRAL WISCONSIN

CITY           SKY/WX    TMP DP  RH WIND       PRES   REMARKS
MEDFORD        CLOUDY    22  19  88 N7        30.24S
WAUSAU         CLOUDY    24  19  81 N7        30.25S
MOSINEE        CLOUDY    25  23  93 N5        30.26S
MARSHFIELD     CLOUDY    21  16  81 NW8       30.25F
WISC RAPIDS    CLOUDY    20  14  77 NW3       30.28F
STEVENS POINT  CLOUDY    20  17  85 CALM      30.26F
WAUPACA        CLOUDY    25  18  76 W3        30.28S
SHAWANO        CLOUDY    28  22  79 W5        30.28R
CLINTONVILLE   CLOUDY    27  21  80 NW6       30.28R
$$

WIZ038-039-048-051-180900-
FOX VALLEY

CITY           SKY/WX    TMP DP  RH WIND       PRES   REMARKS
NWS GREEN BAY  CLOUDY    27  22  81 NW6       30.28R
APPLETON       CLOUDY    25  19  80 W8        30.27S
OSHKOSH        CLOUDY    23  17  78 NW9       30.26F
FOND DU LAC    CLOUDY    23  16  74 CALM      30.27S
$$

WIZ022-050-052-180900-
EAST CENTRAL WISCONSIN

CITY           SKY/WX    TMP DP  RH WIND       PRES   REMARKS
STURGEON BAY   CLOUDY    28  21  74 N10       30.26R
MANITOWOC      CLOUDY    26  22  84 W8        30.26S
SHEBOYGAN      CLOUDY    24  17  74 NW9       30.25F
$$

LMZ563-521-522-541>543-180900-
LAKESHORE

STATION/POSITION TIME  TEMP    WIND        PRES    VSBY  WAVE
                       AIR SEA DIR/SP/G                  HT/PER
                 (UTC) (F)     (DEG/KT/KT) (MB)    (MI)  (FT/S)
SHEBOYGAN LKSHOR 0800   24 34  300/ 10/ 13 1025.8F
KEWAUNEE LKSHORE 0800   27     300/  4/  7 1023.5R
ALGOMA MARINA    0700          340/  8/ 10   N/A
NORTHPORT PIER   0800   29     350/ 17/ 21 1023.7R
SISTER BAY LKSHO 0700          360/ 20/ 22   N/A
CHAMBERS ISLAND  0800   29     330/ 14/ 17 1024.0R
MENOMINEE LKSHOR 0800   28     340/ 10/ 14 1025.0R
$$


USA.gov is the U.S. government's official web portal to all federal, state and local government web resources and services.